CAPE
nan nan nan nan nan nan nan nan nan nan nan nan nan nan nan nan nan nan nan nan nan nan nan nan nan nan nan nan nan nan 7 27 51 51 75 100 118 118 137 140 140 149 154 146 146 139 144 141 141 148 164 186 213 213 244 258 258 263 255 243 243 272 308 343 343 360 379 409 420 420 409 396 392 392 393 370 378 378 365 359 359 310 274 248 248 243
nan nan nan nan nan nan nan nan nan nan nan nan nan nan nan nan nan nan nan nan nan nan nan nan nan nan nan nan nan nan 3 25 48 48 75 96 121 121 130 139 139 144 148 141 141 143 144 153 153 168 182 198 215 215 239 246 246 244 232 236 236 252 278 304 304 341 374 409 415 415 421 405 398 398 382 349 325 325 293 273 273 268 267 262 262 250
nan nan nan nan nan nan nan nan nan nan nan nan nan nan nan nan nan nan nan nan nan nan nan nan nan nan nan nan nan nan 1 22 45 45 64 84 101 101 112 120 120 132 135 138 138 144 157 175 175 184 185 190 198 198 207 211 211 220 220 219 219 236 257 270 270 305 339 371 398 398 410 395 357 357 326 294 269 269 233 238 238 264 279 274 274 279
nan nan nan nan nan nan nan nan nan nan nan nan nan nan nan nan nan nan nan nan nan nan nan nan nan nan nan nan nan nan 2 21 39 39 57 69 84 84 95 106 106 119 132 142 142 154 165 178 178 187 187 185 184 184 188 176 176 194 213 211 211 235 228 240 240 265 281 309 341 341 351 351 307 307 277 255 232 232 221 240 240 285 307 300 300 298
nan nan nan nan nan nan nan nan nan nan nan nan nan nan nan nan nan nan nan nan nan nan nan nan nan nan nan nan nan nan 3 19 34 34 45 58 75 75 92 108 108 121 136 147 147 158 162 165 165 166 165 171 169 169 165 162 162 178 204 221 221 218 231 217 217 216 226 234 260 260 272 264 253 253 261 253 232 232 226 256 256 302 317 325 325 336
nan nan nan nan nan nan nan nan nan nan nan nan nan nan nan nan nan nan nan nan nan nan nan nan nan nan nan nan nan nan 1 15 26 26 41 53 77 77 98 115 115 131 140 144 144 142 150 145 145 144 150 150 162 162 165 163 163 174 193 211 211 196 181 171 171 173 184 209 212 212 230 230 246 246 248 248 240 240 237 273 273 322 337 367 367 405
nan nan nan nan nan nan nan nan nan nan nan nan nan nan nan nan nan nan nan nan nan nan nan nan nan nan nan nan nan nan 0 5 18 18 31 51 80 80 103 117 117 129 125 126 126 126 127 134 134 135 143 155 160 160 164 164 164 176 176 167 167 158 149 151 151 155 185 211 229 229 220 222 232 232 241 234 229 229 246 283 283 316 369 403 403 413
nan nan nan nan nan nan nan nan nan nan nan nan nan nan nan nan nan nan nan nan nan nan nan nan nan nan nan nan nan nan nan nan nan nan nan 11 64 64 73 84 84 82 88 94 94 102 115 112 112 117 132 152 170 170 183 176 176 168 156 143 143 139 156 177 177 207 240 251 238 238 236 219 213 213 219 222 232 232 242 251 251 300 361 361 361 388
nan nan nan nan nan nan nan nan nan nan nan nan nan nan nan nan nan nan nan nan nan nan nan nan nan nan nan nan nan nan nan nan nan nan nan 0 0 0 37 53 53 62 75 85 85 99 105 104 104 110 119 137 161 161 170 172 172 160 151 140 140 147 163 190 190 224 257 247 237 237 226 208 203 203 213 230 237 237 228 234 234 272 294 304 304 337
nan nan nan nan nan nan nan nan nan nan nan nan nan nan nan nan nan nan nan nan nan nan nan nan nan nan nan nan nan nan nan nan 58 58 116 33 59 59 28 17 17 18 59 84 84 106 113 113 113 102 111 124 132 132 139 127 127 125 128 130 130 147 169 194 194 219 229 220 213 213 207 208 218 218 227 235 237 237 232 232 232 233 242 261 261 276
nan nan nan nan nan nan nan nan nan nan nan nan nan nan nan nan nan nan nan nan nan nan nan nan nan nan nan nan nan nan nan nan nan nan 9 13 13 13 12 13 13 29 55 79 79 108 119 124 124 111 102 107 103 103 92 85 85 101 115 131 131 148 176 189 189 202 205 206 204 204 204 221 223 223 225 226 221 221 214 195 195 193 198 201 201 208
nan nan nan nan nan nan nan nan nan nan nan nan nan nan nan nan nan nan 1 14 14 0 nan nan nan nan nan nan nan nan nan nan nan nan nan nan nan nan nan nan nan 3 20 48 48 74 108 130 130 108 87 72 73 73 59 57 57 93 111 129 129 151 172 180 180 182 189 191 195 195 196 203 204 204 205 199 185 185 168 165 165 155 158 166 166 179
nan nan nan nan nan nan nan nan nan nan nan nan nan nan 6 1 2 2 10 15 15 12 nan nan nan nan nan nan nan nan nan nan nan nan nan nan nan nan nan nan nan nan nan 0 0 2 61 91 91 74 64 36 40 40 49 60 60 88 111 130 130 150 165 168 168 169 176 173 176 176 173 174 176 176 170 170 156 156 146 148 148 144 153 165 165 179
nan nan nan nan nan nan nan nan 4 4 5 6 15 15 17 18 8 8 4 9 9 8 nan nan nan nan nan nan nan nan nan nan nan nan nan nan nan nan nan nan nan nan nan nan nan nan 25 22 22 2 15 3 5 5 30 63 63 93 111 128 128 137 144 145 145 147 143 149 146 146 145 152 153 153 152 144 137 137 133 136 136 150 158 176 176 188
nan nan nan nan nan 1 7 23 27 27 36 24 9 9 5 5 9 9 11 16 16 3 nan nan nan nan nan nan nan nan nan nan nan nan nan nan nan nan nan nan nan nan nan 0 0 nan 2 nan nan nan nan nan nan nan 13 46 46 98 109 116 116 127 123 123 123 118 118 119 116 116 121 127 127 127 126 124 123 123 125 134 134 147 165 185 185 206
nan 3 4 13 13 19 23 18 12 12 9 7 5 5 6 9 14 14 21 22 22 8 nan nan nan nan nan nan nan nan nan nan nan nan nan nan nan nan nan nan nan 0 nan nan nan nan nan nan nan nan nan nan 15 15 37 57 57 91 97 103 103 102 102 101 101 95 90 90 94 94 95 100 99 99 103 106 114 114 127 136 136 148 161 187 187 205
4 9 7 5 5 7 9 13 9 9 4 3 5 5 10 14 19 19 26 26 26 7 5 2 2 nan nan nan nan nan nan nan nan nan nan nan nan nan nan nan nan nan nan nan nan nan nan nan nan nan nan 5 24 24 35 55 55 74 80 84 84 84 83 78 78 77 73 76 79 79 83 82 84 84 92 94 105 105 117 129 129 141 148 162 162 179
7 6 4 4 4 5 7 5 2 2 0 3 5 5 18 26 23 23 21 24 24 12 8 2 2 0 nan nan nan nan nan nan nan nan nan 1 nan nan nan nan nan nan nan nan nan nan nan nan nan nan nan 18 30 30 39 55 55 66 69 73 73 67 67 66 66 64 65 66 70 70 70 74 76 76 86 91 101 101 107 111 111 124 129 136 136 153
4 5 2 2 2 5 5 nan nan nan nan 5 20 20 30 26 22 22 20 20 20 15 6 0 0 nan nan 0 nan nan nan nan nan nan 2 4 nan nan nan nan nan nan nan nan nan nan nan nan nan nan 8 20 32 32 45 54 54 56 59 60 60 61 60 58 58 58 60 59 62 62 63 66 74 74 82 86 91 91 100 105 105 110 111 124 124 133
2 4 0 1 1 0 0 nan nan nan nan 12 19 19 16 12 11 11 14 11 11 10 1 nan nan nan nan nan nan nan nan nan nan nan 3 4 nan nan nan nan nan nan nan nan nan nan nan nan nan nan 3 17 36 36 44 50 50 51 57 56 56 53 50 50 50 51 52 56 59 59 62 68 71 71 77 83 89 89 96 101 101 105 112 124 124 132
nan 0 0 nan nan nan nan nan nan nan 4 3 1 1 2 nan nan nan 13 3 3 nan nan nan nan nan nan nan nan nan nan nan nan nan 8 3 nan nan nan nan nan nan nan nan nan nan nan nan nan nan nan 17 33 33 38 41 41 46 47 48 48 47 44 44 44 48 48 54 56 56 61 66 71 71 76 79 83 83 91 99 99 107 116 126 126 138
nan nan nan nan nan nan nan nan 3 3 2 nan nan nan nan nan nan nan 10 1 1 nan nan nan nan nan nan nan nan nan nan nan 5 5 9 5 0 0 nan nan nan nan nan nan nan nan nan nan nan nan nan 19 30 30 36 37 37 39 43 43 43 43 43 44 44 45 47 49 54 54 59 62 67 67 72 79 83 83 90 97 97 108 115 126 126 137
nan nan nan nan nan nan nan nan nan nan nan nan nan nan nan nan 1 1 1 nan nan nan nan nan nan nan nan nan nan nan nan nan nan nan 6 5 nan nan nan nan nan nan nan nan nan nan nan nan nan nan nan 17 21 21 28 31 31 37 38 39 39 40 40 39 39 41 43 47 54 54 59 63 66 66 72 75 82 82 89 102 102 102 111 121 121 134
nan nan nan nan nan nan nan nan nan nan nan nan nan nan nan nan nan nan nan nan nan nan nan nan nan nan nan nan nan nan nan nan nan nan 3 4 1 1 nan nan nan nan nan nan nan nan nan nan nan nan nan 4 13 13 19 24 24 30 32 33 33 32 33 34 34 36 42 47 54 54 55 59 64 64 69 75 84 84 94 98 98 105 112 119 119 112
nan nan nan nan nan nan nan nan nan nan nan nan nan nan nan nan nan nan nan nan nan nan nan nan nan nan nan nan nan nan nan nan nan nan 9 3 1 1 nan nan nan nan nan nan nan nan nan nan nan nan nan nan 3 3 9 16 16 20 23 26 26 27 28 30 30 34 38 41 47 47 53 59 63 63 71 77 81 81 85 95 95 102 107 109 109 98
nan nan nan 3 3 23 17 16 26 26 1 nan nan nan nan nan nan nan nan nan nan nan nan nan nan nan nan nan nan nan nan nan 4 4 4 2 1 1 nan nan nan 0 0 nan nan nan nan nan nan nan nan nan 0 0 3 8 8 13 15 16 16 19 22 27 27 29 34 38 44 44 47 53 59 59 66 74 81 81 84 90 90 100 101 88 88 69
16 18 24 27 27 24 22 23 29 29 45 40 15 15 nan nan nan nan nan nan nan nan nan nan nan nan nan nan nan nan nan nan 3 3 nan nan 4 4 nan nan nan 1 4 1 1 nan nan nan nan nan nan nan nan nan 1 4 4 6 8 10 10 13 16 20 20 25 29 33 38 38 44 50 56 56 66 69 79 79 81 87 87 92 87 75 75 54
6 11 18 23 23 23 20 22 32 32 46 57 69 69 0 nan nan nan 0 3 3 nan 0 0 0 nan nan nan nan nan nan nan nan nan nan 0 3 3 nan nan nan 0 4 2 2 0 0 nan nan nan nan nan nan nan nan 1 1 2 4 5 5 7 10 16 16 21 25 28 33 33 39 49 55 55 61 64 72 72 78 80 80 86 73 44 44 5
nan 0 6 16 16 18 17 12 29 29 49 60 75 75 3 nan nan nan 8 4 4 nan 1 2 2 2 0 0 nan nan nan nan nan nan nan 3 4 4 0 nan nan 1 4 0 0 nan nan nan nan nan nan nan nan nan nan nan nan 0 1 2 2 4 7 13 13 18 21 25 29 29 36 43 49 49 54 58 64 64 72 76 76 78 56 26 26 4
nan nan nan 0 0 2 nan nan 3 3 39 58 71 71 27 nan 1 1 7 1 1 4 3 4 4 5 3 nan nan nan nan nan nan nan 0 6 3 3 0 2 2 4 5 0 0 nan nan nan nan nan nan nan nan nan nan nan nan nan nan 0 0 0 5 10 10 15 18 22 25 25 32 36 40 40 48 52 57 57 68 72 72 65 33 8 8 3
nan nan nan nan nan nan nan nan nan nan 1 33 50 50 17 nan nan nan 3 5 5 3 7 7 7 8 7 2 nan nan nan nan nan nan 8 12 4 4 5 5 5 3 5 1 1 nan nan nan nan nan nan nan nan nan nan nan nan nan nan nan nan nan 3 9 9 12 14 16 21 21 26 32 37 37 41 45 50 50 57 69 69 62 21 6 6 2
nan nan nan nan nan nan nan nan nan nan nan nan nan nan 13 15 10 10 2 nan nan 2 6 9 9 12 9 8 7 7 6 nan 11 11 29 9 5 5 2 1 1 1 1 2 2 2 0 nan nan nan nan nan nan nan nan nan nan nan nan nan nan nan nan 2 2 2 3 9 14 14 18 22 25 25 28 32 37 37 42 47 47 52 25 8 8 6
nan nan nan nan nan nan nan nan nan nan nan nan nan nan 1 6 17 17 2 nan nan nan 2 6 6 8 5 6 8 8 1 nan 10 10 38 7 4 4 0 1 1 1 1 0 0 0 nan nan nan nan nan nan nan nan nan nan nan nan nan nan nan nan nan nan nan nan 0 2 3 3 12 15 18 18 22 25 32 32 37 39 39 48 48 11 11 10
nan nan nan nan nan nan nan nan nan nan nan nan 1 1 3 0 nan nan 0 nan nan nan nan 1 1 5 5 7 6 6 nan nan 14 14 26 0 0 0 nan 0 0 1 1 0 0 nan nan nan nan nan nan nan nan nan nan nan nan nan nan nan nan nan nan nan nan nan nan nan nan nan nan 0 10 10 10 18 25 25 30 34 34 39 42 29 29 15
nan nan nan nan nan nan nan nan nan nan nan nan 2 2 nan nan nan nan nan nan nan nan nan nan nan nan 1 3 5 5 nan nan 2 2 23 nan nan nan nan nan nan 0 0 1 1 0 0 0 0 0 nan nan nan nan nan nan nan nan nan nan nan nan nan nan nan nan nan nan nan nan nan nan nan nan 1 10 17 17 22 26 26 29 35 44 44 32
nan nan nan nan nan nan nan nan nan nan nan nan nan nan nan nan nan nan nan nan nan nan nan nan nan nan nan nan nan nan nan nan nan nan 1 nan nan nan nan nan nan nan nan 0 0 1 nan nan nan 0 0 nan nan nan nan nan nan nan nan nan nan nan nan nan nan nan nan nan nan nan nan nan nan nan nan 12 15 15 13 14 14 17 25 32 32 36
nan nan nan nan nan nan nan nan nan nan nan nan nan nan nan nan nan nan nan nan nan nan nan nan nan nan nan nan nan nan nan nan nan nan nan nan nan nan nan nan nan nan nan 0 0 1 1 0 0 nan nan nan nan nan nan nan nan nan nan nan nan nan nan nan nan nan nan nan nan nan nan nan nan nan 1 10 6 6 5 7 7 7 14 17 17 24
nan nan nan nan nan nan nan nan nan nan nan nan 0 0 nan nan nan nan nan nan nan nan nan nan nan nan nan nan nan nan nan nan nan nan nan nan nan nan nan nan nan nan nan 0 0 0 0 0 0 nan nan nan nan nan nan nan nan nan nan nan nan nan nan nan nan nan nan nan 0 0 1 0 nan nan nan nan nan nan nan nan nan 1 5 6 6 13
nan nan nan nan nan nan nan nan nan nan nan nan nan nan nan nan nan nan nan nan nan nan nan nan nan nan nan nan nan nan nan nan nan nan nan nan nan nan nan nan nan nan nan nan nan nan nan nan nan nan nan nan nan nan nan nan nan nan nan nan nan nan nan nan nan nan nan nan 0 0 nan nan nan nan nan nan nan nan nan nan nan nan nan nan nan 1
1 nan nan nan nan nan nan nan nan nan nan nan nan nan nan nan nan nan nan nan nan nan nan nan nan nan nan nan nan nan nan nan nan nan nan nan nan nan nan nan nan nan nan nan nan nan nan nan nan nan nan nan nan nan nan nan nan nan nan nan nan nan nan nan nan nan nan nan nan nan nan nan nan nan nan nan nan nan nan nan nan nan nan nan nan nan
3 nan nan nan nan nan nan nan nan nan nan nan nan nan nan nan nan nan nan nan nan nan nan nan nan nan nan nan nan nan nan nan nan nan nan nan nan nan nan nan nan nan nan nan nan nan nan nan nan nan nan nan nan nan nan nan nan nan 1 nan nan nan nan nan nan nan nan nan nan nan nan nan nan nan nan nan nan nan nan nan nan nan nan nan nan nan
5 nan nan nan nan nan nan nan nan nan nan nan nan nan nan nan nan nan nan nan nan nan nan nan nan nan nan nan nan nan nan nan nan nan nan nan nan nan nan nan nan nan nan nan nan nan nan nan nan nan nan nan nan nan nan nan nan nan nan nan nan nan nan nan nan nan nan nan nan nan 0 nan nan nan nan nan nan nan nan nan nan nan nan nan nan nan
nan nan nan nan nan nan nan nan nan nan nan nan nan nan nan nan nan nan nan nan nan nan nan nan nan nan nan nan nan nan nan nan nan nan nan nan nan nan nan nan nan nan nan nan nan nan nan nan nan nan nan nan nan nan nan nan nan nan nan nan nan nan nan nan nan nan nan nan nan nan nan nan nan nan nan nan nan nan nan nan nan nan nan nan nan nan
nan nan nan nan nan nan nan nan nan nan nan nan 4 4 nan nan nan nan nan nan nan nan nan nan nan nan nan nan nan nan nan nan nan nan nan nan nan nan nan nan nan nan nan nan nan nan nan nan nan nan nan nan nan nan nan nan nan nan nan nan nan nan nan nan nan nan nan nan nan nan nan nan nan nan nan nan nan nan nan nan nan nan nan nan nan nan
nan nan nan nan nan nan nan nan nan nan nan nan 4 4 nan nan nan nan nan nan nan nan nan nan nan nan nan nan nan nan nan nan nan nan nan nan 0 0 nan nan nan nan nan nan nan nan nan nan nan nan nan nan nan nan nan nan nan nan nan 0 0 nan nan nan nan nan nan nan nan nan nan nan nan nan nan nan nan nan nan nan nan nan nan nan nan nan
nan nan nan nan nan nan nan nan nan nan nan 0 8 8 nan nan nan nan nan nan nan nan nan nan nan nan nan nan nan nan nan nan nan nan nan nan nan nan nan nan nan nan nan nan nan nan nan nan nan nan nan nan nan nan nan nan nan nan nan nan nan nan nan nan nan nan nan nan nan nan nan nan nan nan nan nan nan nan nan nan nan nan nan nan nan nan
nan nan nan nan nan nan nan nan nan nan nan 1 7 7 nan nan nan nan nan nan nan nan nan nan nan nan nan nan nan nan nan nan nan nan nan nan nan nan nan nan nan nan nan nan nan nan nan nan nan nan nan nan nan nan nan nan nan nan nan nan nan nan nan nan nan nan nan nan nan nan nan nan nan nan nan nan nan nan nan nan nan nan nan nan nan nan
nan nan nan nan nan nan nan nan nan nan nan 2 2 2 nan nan nan nan nan nan nan nan nan nan nan nan nan nan nan nan nan nan nan nan nan nan nan nan nan nan nan nan nan nan nan nan nan nan nan nan nan nan nan nan nan nan nan nan nan nan nan nan nan nan nan nan nan nan nan nan nan nan nan nan nan nan nan nan nan nan nan nan nan nan nan nan
nan nan nan nan nan nan nan nan nan nan nan 2 3 3 nan nan nan nan nan nan nan nan nan nan nan nan nan nan nan nan nan nan nan nan nan nan nan nan nan nan nan nan nan nan nan nan nan nan nan nan nan nan nan nan nan nan nan nan nan nan nan nan nan nan nan nan nan nan nan nan nan nan nan nan nan nan nan nan nan nan nan nan nan nan nan nan
nan nan nan nan nan nan nan nan nan nan nan 4 5 5 nan nan nan nan nan nan nan nan nan nan nan nan nan nan nan nan nan nan nan nan nan nan nan nan nan nan nan nan nan nan nan nan nan nan nan nan nan nan nan nan nan nan nan nan nan nan nan nan nan nan nan nan nan nan nan nan nan nan nan nan nan nan nan nan nan nan nan nan nan nan nan nan
nan nan nan nan nan nan nan nan nan nan nan 4 7 7 nan nan nan nan nan nan nan nan nan nan nan nan nan nan nan nan nan nan nan nan nan nan nan nan nan nan nan nan nan nan nan nan nan nan nan nan nan 7 nan nan nan nan nan nan nan nan nan nan nan nan nan nan nan nan nan nan nan nan nan nan nan nan nan nan nan nan nan nan nan nan nan nan
CIN
nan nan nan nan nan nan nan nan nan nan nan nan nan nan nan nan nan nan nan nan nan nan nan nan nan nan nan nan nan nan -19 -5 -0 -0 -0 -0 -0 -0 -0 -0 -0 -0 -0 -0 -0 -0 -0 -0 -0 -0 -0 -0 -0 -0 -0 -0 -0 -0 -0 -0 -0 -0 -0 -0 -0 -0 -0 -0 -0 -0 -0 -0 -0 -0 -0 -0 -0 -0 -0 -0 -0 -0 -0 -0 -0 -0
nan nan nan nan nan nan nan nan nan nan nan nan nan nan nan nan nan nan nan nan nan nan nan nan nan nan nan nan nan nan -24 -4 -0 -0 -0 -0 -0 -0 -0 -0 -0 -0 -0 -0 -0 -0 -0 -0 -0 -0 -0 -0 -0 -0 -0 -0 -0 -0 -0 -0 -0 -0 -0 -0 -0 -0 -0 -0 -0 -0 -0 -0 -0 -0 -0 -0 -0 -0 -0 -0 -0 -0 -0 -0 -0 -0
nan nan nan nan nan nan nan nan nan nan nan nan nan nan nan nan nan nan nan nan nan nan nan nan nan nan nan nan nan nan -24 -4 -0 -0 -0 -0 -0 -0 -0 -0 -0 -0 -0 -0 -0 -0 -0 -0 -0 -0 -0 -0 -0 -0 -0 -0 -0 -0 -0 -0 -0 -0 -0 -0 -0 -0 -0 -0 -0 -0 -0 -0 -0 -0 -0 -0 -0 -0 -0 -0 -0 -0 -0 -0 -0 -0
nan nan nan nan nan nan nan nan nan nan nan nan nan nan nan nan nan nan nan nan nan nan nan nan nan nan nan nan nan nan -20 -2 -0 -0 -0 -0 -0 -0 -0 -0 -0 -0 -0 -0 -0 -0 -0 -0 -0 -0 -0 -0 -0 -0 -0 -0 -0 -0 -0 -0 -0 -0 -0 -0 -0 -0 -0 -0 -0 -0 -0 -0 -0 -0 -0 -0 -0 -0 -0 -0 -0 -0 -0 -0 -0 -0
nan nan nan nan nan nan nan nan nan nan nan nan nan nan nan nan nan nan nan nan nan nan nan nan nan nan nan nan nan nan -18 -3 -0 -0 -0 -0 -0 -0 -0 -0 -0 -0 -0 -0 -0 -0 -0 -0 -0 -0 -0 -0 -0 -0 -0 -0 -0 -0 -0 -0 -0 -0 -0 -0 -0 -0 -0 -0 -0 -0 -0 -0 -0 -0 -0 -0 -0 -0 -0 -0 -0 -0 -0 -0 -0 -0
nan nan nan nan nan nan nan nan nan nan nan nan nan nan nan nan nan nan nan nan nan nan nan nan nan nan nan nan nan nan -22 -6 -3 -3 -0 -0 -0 -0 -0 -0 -0 -0 -0 -0 -0 -0 -0 -0 -0 -0 -0 -0 -0 -0 -0 -0 -0 -0 -0 -0 -0 -0 -0 -0 -0 -0 -0 -0 -0 -0 -0 -0 -0 -0 -0 -0 -0 -0 -0 -0 -0 -0 -0 -0 -0 -0
nan nan nan nan nan nan nan nan nan nan nan nan nan nan nan nan nan nan nan nan nan nan nan nan nan nan nan nan nan nan -33 -23 -8 -8 -1 -0 -0 -0 -0 -0 -0 -0 -0 -0 -0 -0 -0 -0 -0 -0 -0 -0 -0 -0 -0 -0 -0 -0 -0 -0 -0 -0 -0 -0 -0 -0 -0 -0 -0 -0 -0 -0 -0 -0 -0 -0 -0 -0 -0 -0 -0 -0 -0 -0 -0 -0
nan nan nan nan nan nan nan nan nan nan nan nan nan nan nan nan nan nan nan nan nan nan nan nan nan nan nan nan nan nan nan nan nan nan nan -23 -0 -0 -0 -0 -0 -0 -0 -0 -0 -0 -0 -0 -0 -0 -0 -0 -0 -0 -0 -0 -0 -0 -0 -0 -0 -0 -0 -0 -0 -0 -0 -0 -0 -0 -0 -0 -0 -0 -0 -0 -0 -0 -0 -0 -0 -0 -0 -0 -0 -0
nan nan nan nan nan nan nan nan nan nan nan nan nan nan nan nan nan nan nan nan nan nan nan nan nan nan nan nan nan nan nan nan nan nan nan -50 -57 -57 -0 -0 -0 -0 -0 -0 -0 -0 -0 -0 -0 -0 -0 -0 -0 -0 -0 -0 -0 -0 -0 -0 -0 -0 -0 -0 -0 -0 -0 -0 -0 -0 -0 -0 -0 -0 -0 -0 -0 -0 -0 -0 -0 -0 -0 -0 -0 -0
nan nan nan nan nan nan nan nan nan nan nan nan nan nan nan nan nan nan nan nan nan nan nan nan nan nan nan nan nan nan nan nan -1 -1 -0 -0 -0 -0 -0 -1 -1 -0 -0 -0 -0 -0 -0 -0 -0 -0 -0 -0 -0 -0 -0 -0 -0 -0 -0 -0 -0 -0 -0 -0 -0 -0 -0 -0 -0 -0 -0 -0 -0 -0 -0 -0 -0 -0 -0 -0 -0 -0 -0 -0 -0 -0
nan nan nan nan nan nan nan nan nan nan nan nan nan nan nan nan nan nan nan nan nan nan nan nan nan nan nan nan nan nan nan nan nan nan -17 -8 -7 -7 -4 -1 -1 -0 -0 -0 -0 -0 -0 -0 -0 -0 -0 -0 -0 -0 -0 -0 -0 -0 -0 -0 -0 -0 -0 -0 -0 -0 -0 -0 -0 -0 -0 -0 -0 -0 -0 -0 -0 -0 -0 -0 -0 -0 -0 -0 -0 -0
nan nan nan nan nan nan nan nan nan nan nan nan nan nan nan nan nan nan -3 -0 -0 -7 nan nan nan nan nan nan nan nan nan nan nan nan nan nan nan nan nan nan nan -8 -3 -0 -0 -0 -0 -0 -0 -0 -0 -0 -0 -0 -0 -0 -0 -0 -0 -0 -0 -0 -0 -0 -0 -0 -0 -0 -0 -0 -0 -0 -0 -0 -0 -0 -0 -0 -0 -0 -0 -0 -0 -0 -0 -0
nan nan nan nan nan nan nan nan nan nan nan nan nan nan -1 -7 -6 -6 -2 -2 -2 -3 nan nan nan nan nan nan nan nan nan nan nan nan nan nan nan nan nan nan nan nan nan -49 -49 -45 -0 -0 -0 -0 -0 -0 -0 -0 -0 -0 -0 -0 -0 -0 -0 -0 -0 -0 -0 -0 -0 -0 -0 -0 -0 -0 -0 -0 -0 -0 -0 -0 -0 -0 -0 -0 -0 -0 -0 -0
nan nan nan nan nan nan nan nan -5 -5 -6 -3 -0 -0 -1 -1 -4 -4 -4 -3 -3 -6 nan nan nan nan nan nan nan nan nan nan nan nan nan nan nan nan nan nan nan nan nan nan nan nan -3 -0 -0 -13 -0 -0 -0 -0 -0 -0 -0 -0 -0 -0 -0 -0 -0 -0 -0 -0 -0 -0 -0 -0 -0 -0 -0 -0 -0 -0 -0 -0 -0 -0 -0 -0 -0 -0 -0 -0
nan nan nan nan nan -6 -3 -0 -0 -0 -0 -0 -1 -1 -3 -4 -3 -3 -2 -1 -1 -11 nan nan nan nan nan nan nan nan nan nan nan nan nan nan nan nan nan nan nan nan nan -39 -39 nan -12 nan nan nan nan nan nan nan -0 -0 -0 -0 -0 -0 -0 -0 -0 -0 -0 -0 -0 -0 -0 -0 -0 -0 -0 -0 -0 -0 -0 -0 -0 -0 -0 -0 -0 -0 -0 -0
nan -1 -1 -0 -0 -0 -0 -0 -0 -0 -1 -2 -3 -3 -2 -2 -2 -2 -1 -1 -1 -6 nan nan nan nan nan nan nan nan nan nan nan nan nan nan nan nan nan nan nan -24 nan nan nan nan nan nan nan nan nan nan -0 -0 -0 -0 -0 -0 -0 -0 -0 -0 -0 -0 -0 -0 -0 -0 -0 -0 -0 -0 -0 -0 -0 -0 -0 -0 -0 -0 -0 -0 -0 -0 -0 -0
-1 -0 -0 -0 -0 -0 -1 -1 -1 -1 -3 -4 -4 -4 -3 -2 -1 -1 -0 -1 -1 -4 -4 -4 -4 nan nan nan nan nan nan nan nan nan nan nan nan nan nan nan nan nan nan nan nan nan nan nan nan nan nan -0 -0 -0 -0 -0 -0 -0 -0 -0 -0 -0 -0 -0 -0 -0 -0 -0 -0 -0 -0 -0 -0 -0 -0 -0 -0 -0 -0 -0 -0 -0 -0 -0 -0 -0
-0 -0 -0 -0 -0 -1 -1 -2 -5 -5 -7 -4 -4 -4 -3 -2 -1 -1 -1 -1 -1 -2 -2 -5 -5 -7 nan nan nan nan nan nan nan nan nan -3 nan nan nan nan nan nan nan nan nan nan nan nan nan nan nan -0 -0 -0 -0 -0 -0 -0 -0 -0 -0 -0 -0 -0 -0 -0 -0 -0 -0 -0 -0 -0 -0 -0 -0 -0 -0 -0 -0 -0 -0 -0 -0 -0 -0 -0
-0 -0 -1 -1 -1 -1 -1 nan nan nan nan -2 -1 -1 -1 -1 -1 -1 -2 -1 -1 -1 -2 -8 -8 nan nan -3 nan nan nan nan nan nan -2 -0 nan nan nan nan nan nan nan nan nan nan nan nan nan nan -0 -0 -0 -0 -0 -0 -0 -0 -0 -0 -0 -0 -0 -0 -0 -0 -0 -0 -0 -0 -0 -0 -0 -0 -0 -0 -0 -0 -0 -0 -0 -0 -0 -0 -0 -0
-1 -1 -4 -2 -2 -3 -5 nan nan nan nan -1 -0 -0 -0 -0 -2 -2 -1 -1 -1 -0 -2 nan nan nan nan nan nan nan nan nan nan nan -3 -1 nan nan nan nan nan nan nan nan nan nan nan nan nan nan -0 -0 -0 -0 -0 -0 -0 -0 -0 -0 -0 -0 -0 -0 -0 -0 -0 -0 -0 -0 -0 -0 -0 -0 -0 -0 -0 -0 -0 -0 -0 -0 -0 -0 -0 -0
nan -3 -8 nan nan nan nan nan nan nan -1 -1 -1 -1 -1 nan nan nan -0 -1 -1 nan nan nan nan nan nan nan nan nan nan nan nan nan -0 -3 nan nan nan nan nan nan nan nan nan nan nan nan nan nan nan -0 -0 -0 -0 -0 -0 -0 -0 -0 -0 -0 -0 -0 -0 -0 -0 -0 -0 -0 -0 -0 -0 -0 -0 -0 -0 -0 -0 -0 -0 -0 -0 -0 -0 -0
nan nan nan nan nan nan nan nan -2 -2 -0 nan nan nan nan nan nan nan -0 -2 -2 nan nan nan nan nan nan nan nan nan nan nan -5 -5 -2 -1 -9 -9 nan nan nan nan nan nan nan nan nan nan nan nan nan -0 -0 -0 -0 -0 -0 -0 -0 -0 -0 -0 -0 -0 -0 -0 -0 -0 -0 -0 -0 -0 -0 -0 -0 -0 -0 -0 -0 -0 -0 -0 -0 -0 -0 -0
nan nan nan nan nan nan nan nan nan nan nan nan nan nan nan nan -1 -1 -2 nan nan nan nan nan nan nan nan nan nan nan nan nan nan nan -5 -1 nan nan nan nan nan nan nan nan nan nan nan nan nan nan nan -0 -0 -0 -0 -0 -0 -0 -0 -0 -0 -0 -0 -0 -0 -0 -0 -0 -0 -0 -0 -0 -0 -0 -0 -0 -0 -0 -0 -0 -0 -0 -0 -0 -0 -0
nan nan nan nan nan nan nan nan nan nan nan nan nan nan nan nan nan nan nan nan nan nan nan nan nan nan nan nan nan nan nan nan nan nan -11 -1 -0 -0 nan nan nan nan nan nan nan nan nan nan nan nan nan -0 -0 -0 -0 -0 -0 -0 -0 -0 -0 -0 -0 -0 -0 -0 -0 -0 -0 -0 -0 -0 -0 -0 -0 -0 -0 -0 -0 -0 -0 -0 -0 -0 -0 -0
nan nan nan nan nan nan nan nan nan nan nan nan nan nan nan nan nan nan nan nan nan nan nan nan nan nan nan nan nan nan nan nan nan nan -3 -1 -1 -1 nan nan nan nan nan nan nan nan nan nan nan nan nan nan -0 -0 -0 -0 -0 -0 -0 -0 -0 -0 -0 -0 -0 -0 -0 -0 -0 -0 -0 -0 -0 -0 -0 -0 -0 -0 -0 -0 -0 -0 -0 -0 -0 -0
nan nan nan -15 -15 -0 -0 -0 -0 -0 -33 nan nan nan nan nan nan nan nan nan nan nan nan nan nan nan nan nan nan nan nan nan -35 -35 -9 -2 -1 -1 nan nan nan -8 -8 nan nan nan nan nan nan nan nan nan -0 -0 -0 -0 -0 -0 -0 -0 -0 -0 -0 -0 -0 -0 -0 -0 -0 -0 -0 -0 -0 -0 -0 -0 -0 -0 -0 -0 -0 -0 -0 -0 -0 -0
-0 -0 -0 -0 -0 -0 -0 -0 -0 -0 -0 -0 -2 -2 nan nan nan nan nan nan nan nan nan nan nan nan nan nan nan nan nan nan -35 -35 nan nan -0 -0 nan nan nan -7 -5 -7 -7 nan nan nan nan nan nan nan nan nan -0 -0 -0 -0 -0 -0 -0 -0 -0 -0 -0 -0 -0 -0 -0 -0 -0 -0 -0 -0 -0 -0 -0 -0 -0 -0 -0 -0 -0 -0 -0 -0
-0 -0 -0 -0 -0 -0 -0 -0 -0 -0 -0 -0 -0 -0 -17 nan nan nan -6 -3 -3 nan -6 -4 -4 nan nan nan nan nan nan nan nan nan nan -11 -2 -2 nan nan nan -19 -5 -6 -6 -5 -0 nan nan nan nan nan nan nan nan -0 -0 -0 -0 -0 -0 -0 -0 -0 -0 -0 -0 -0 -0 -0 -0 -0 -0 -0 -0 -0 -0 -0 -0 -0 -0 -0 -0 -0 -0 -1
nan -0 -0 -0 -0 -0 -0 -0 -0 -0 -0 -0 -0 -0 -16 nan nan nan -1 -8 -8 nan -9 -3 -3 -3 -3 -3 nan nan nan nan nan nan nan -6 -3 -3 -17 nan nan -15 -4 -3 -3 nan nan nan nan nan nan nan nan nan nan nan nan -0 -0 -0 -0 -0 -0 -0 -0 -0 -0 -0 -0 -0 -0 -0 -0 -0 -0 -0 -0 -0 -0 -0 -0 -0 -0 -0 -0 -2
nan nan nan -1 -1 -0 nan nan -0 -0 -0 -0 -0 -0 -1 nan -13 -13 -6 -20 -20 -6 -3 -1 -1 -2 -2 nan nan nan nan nan nan nan -27 -4 -3 -3 -21 -12 -12 -4 -3 -2 -2 nan nan nan nan nan nan nan nan nan nan nan nan nan nan -0 -0 -0 -0 -0 -0 -0 -0 -0 -0 -0 -0 -0 -0 -0 -0 -0 -0 -0 -0 -0 -0 -0 -0 -2 -2 -2
nan nan nan nan nan nan nan nan nan nan -2 -0 -0 -0 -4 nan nan nan -20 -11 -11 -9 -2 -1 -1 -2 -2 -4 nan nan nan nan nan nan -10 -1 -3 -3 -4 -3 -3 -5 -5 -2 -2 nan nan nan nan nan nan nan nan nan nan nan nan nan nan nan nan nan -0 -0 -0 -0 -0 -0 -0 -0 -0 -0 -0 -0 -0 -0 -0 -0 -0 -0 -0 -0 -1 -2 -2 -4
nan nan nan nan nan nan nan nan nan nan nan nan nan nan -0 -6 -11 -11 -24 nan nan -17 -4 -1 -1 -2 -3 -2 -1 -1 -1 nan -7 -7 -0 -2 -3 -3 -6 -5 -5 -4 -5 -7 -7 -4 -4 nan nan nan nan nan nan nan nan nan nan nan nan nan nan nan nan -0 -0 -0 -0 -0 -0 -0 -0 -0 -0 -0 -0 -0 -0 -0 -0 -0 -0 -0 -0 -1 -1 -1
nan nan nan nan nan nan nan nan nan nan nan nan nan nan -23 -13 -0 -0 -25 nan nan nan -14 -2 -2 -1 -3 -3 -2 -2 -15 nan -7 -7 -0 -3 -3 -3 -6 -5 -5 -5 -5 -5 -5 -7 nan nan nan nan nan nan nan nan nan nan nan nan nan nan nan nan nan nan nan nan -0 -0 -0 -0 -0 -0 -0 -0 -0 -0 -0 -0 -0 -0 -0 -0 -0 -1 -1 -1
nan nan nan nan nan nan nan nan nan nan nan nan -20 -20 -14 -30 nan nan -29 nan nan nan nan -15 -15 -3 -2 -1 -1 -1 nan nan -2 -2 -0 -10 -5 -5 nan -7 -7 -6 -4 -4 -4 nan nan nan nan nan nan nan nan nan nan nan nan nan nan nan nan nan nan nan nan nan nan nan nan nan nan -0 -0 -0 -0 -0 -0 -0 -0 -0 -0 -0 -0 -0 -0 -0
nan nan nan nan nan nan nan nan nan nan nan nan -14 -14 nan nan nan nan nan nan nan nan nan nan nan nan -10 -2 -0 -0 nan nan -12 -12 -0 nan nan nan nan nan nan -8 -4 -4 -4 -5 -4 -1 -1 -0 nan nan nan nan nan nan nan nan nan nan nan nan nan nan nan nan nan nan nan nan nan nan nan nan -0 -0 -0 -0 -0 -0 -0 -0 -0 -0 -0 -0
nan nan nan nan nan nan nan nan nan nan nan nan nan nan nan nan nan nan nan nan nan nan nan nan nan nan nan nan nan nan nan nan nan nan -14 nan nan nan nan nan nan nan nan -3 -3 -4 nan nan nan -0 -0 nan nan nan nan nan nan nan nan nan nan nan nan nan nan nan nan nan nan nan nan nan nan nan nan -0 -0 -0 -0 -0 -0 -0 -0 -0 -0 -0
nan nan nan nan nan nan nan nan nan nan nan nan nan nan nan nan nan nan nan nan nan nan nan nan nan nan nan nan nan nan nan nan nan nan nan nan nan nan nan nan nan nan nan -5 -5 -3 -2 -2 -2 nan nan nan nan nan nan nan nan nan nan nan nan nan nan nan nan nan nan nan nan nan nan nan nan nan -0 -0 -0 -0 -0 -0 -0 -0 -0 -0 -0 -0
nan nan nan nan nan nan nan nan nan nan nan nan -1 -1 nan nan nan nan nan nan nan nan nan nan nan nan nan nan nan nan nan nan nan nan nan nan nan nan nan nan nan nan nan -9 -9 -6 -4 -2 -2 nan nan nan nan nan nan nan nan nan nan nan nan nan nan nan nan nan nan nan -0 -0 -0 -0 nan nan nan nan nan nan nan nan nan -0 -0 -0 -0 -0
nan nan nan nan nan nan nan nan nan nan nan nan nan nan nan nan nan nan nan nan nan nan nan nan nan nan nan nan nan nan nan nan nan nan nan nan nan nan nan nan nan nan nan nan nan nan nan nan nan nan nan nan nan nan nan nan nan nan nan nan nan nan nan nan nan nan nan nan -0 -0 nan nan nan nan nan nan nan nan nan nan nan nan nan nan nan -0
-4 nan nan nan nan nan nan nan nan nan nan nan nan nan nan nan nan nan nan nan nan nan nan nan nan nan nan nan nan nan nan nan nan nan nan nan nan nan nan nan nan nan nan nan nan nan nan nan nan nan nan nan nan nan nan nan nan nan nan nan nan nan nan nan nan nan nan nan nan nan nan nan nan nan nan nan nan nan nan nan nan nan nan nan nan nan
-3 nan nan nan nan nan nan nan nan nan nan nan nan nan nan nan nan nan nan nan nan nan nan nan nan nan nan nan nan nan nan nan nan nan nan nan nan nan nan nan nan nan nan nan nan nan nan nan nan nan nan nan nan nan nan nan nan nan -0 nan nan nan nan nan nan nan nan nan nan nan nan nan nan nan nan nan nan nan nan nan nan nan nan nan nan nan
-0 nan nan nan nan nan nan nan nan nan nan nan nan nan nan nan nan nan nan nan nan nan nan nan nan nan nan nan nan nan nan nan nan nan nan nan nan nan nan nan nan nan nan nan nan nan nan nan nan nan nan nan nan nan nan nan nan nan nan nan nan nan nan nan nan nan nan nan nan nan -0 nan nan nan nan nan nan nan nan nan nan nan nan nan nan nan
nan nan nan nan nan nan nan nan nan nan nan nan nan nan nan nan nan nan nan nan nan nan nan nan nan nan nan nan nan nan nan nan nan nan nan nan nan nan nan nan nan nan nan nan nan nan nan nan nan nan nan nan nan nan nan nan nan nan nan nan nan nan nan nan nan nan nan nan nan nan nan nan nan nan nan nan nan nan nan nan nan nan nan nan nan nan
nan nan nan nan nan nan nan nan nan nan nan nan -2 -2 nan nan nan nan nan nan nan nan nan nan nan nan nan nan nan nan nan nan nan nan nan nan nan nan nan nan nan nan nan nan nan nan nan nan nan nan nan nan nan nan nan nan nan nan nan nan nan nan nan nan nan nan nan nan nan nan nan nan nan nan nan nan nan nan nan nan nan nan nan nan nan nan
nan nan nan nan nan nan nan nan nan nan nan nan -3 -3 nan nan nan nan nan nan nan nan nan nan nan nan nan nan nan nan nan nan nan nan nan nan -3 -3 nan nan nan nan nan nan nan nan nan nan nan nan nan nan nan nan nan nan nan nan nan -0 -0 nan nan nan nan nan nan nan nan nan nan nan nan nan nan nan nan nan nan nan nan nan nan nan nan nan
nan nan nan nan nan nan nan nan nan nan nan -8 -1 -1 nan nan nan nan nan nan nan nan nan nan nan nan nan nan nan nan nan nan nan nan nan nan nan nan nan nan nan nan nan nan nan nan nan nan nan nan nan nan nan nan nan nan nan nan nan nan nan nan nan nan nan nan nan nan nan nan nan nan nan nan nan nan nan nan nan nan nan nan nan nan nan nan
nan nan nan nan nan nan nan nan nan nan nan -7 -1 -1 nan nan nan nan nan nan nan nan nan nan nan nan nan nan nan nan nan nan nan nan nan nan nan nan nan nan nan nan nan nan nan nan nan nan nan nan nan nan nan nan nan nan nan nan nan nan nan nan nan nan nan nan nan nan nan nan nan nan nan nan nan nan nan nan nan nan nan nan nan nan nan nan
nan nan nan nan nan nan nan nan nan nan nan -4 -5 -5 nan nan nan nan nan nan nan nan nan nan nan nan nan nan nan nan nan nan nan nan nan nan nan nan nan nan nan nan nan nan nan nan nan nan nan nan nan nan nan nan nan nan nan nan nan nan nan nan nan nan nan nan nan nan nan nan nan nan nan nan nan nan nan nan nan nan nan nan nan nan nan nan
nan nan nan nan nan nan nan nan nan nan nan -4 -4 -4 nan nan nan nan nan nan nan nan nan nan nan nan nan nan nan nan nan nan nan nan nan nan nan nan nan nan nan nan nan nan nan nan nan nan nan nan nan nan nan nan nan nan nan nan nan nan nan nan nan nan nan nan nan nan nan nan nan nan nan nan nan nan nan nan nan nan nan nan nan nan nan nan
nan nan nan nan nan nan nan nan nan nan nan -2 -1 -1 nan nan nan nan nan nan nan nan nan nan nan nan nan nan nan nan nan nan nan nan nan nan nan nan nan nan nan nan nan nan nan nan nan nan nan nan nan nan nan nan nan nan nan nan nan nan nan nan nan nan nan nan nan nan nan nan nan nan nan nan nan nan nan nan nan nan nan nan nan nan nan nan
nan nan nan nan nan nan nan nan nan nan nan -2 -1 -1 nan nan nan nan nan nan nan nan nan nan nan nan nan nan nan nan nan nan nan nan nan nan nan nan nan nan nan nan nan nan nan nan nan nan nan nan nan -0 nan nan nan nan nan nan nan nan nan nan nan nan nan nan nan nan nan nan nan nan nan nan nan nan nan nan nan nan nan nan nan nan nan nan
Wind_Speed
1 1 2 1 1 2 2 2 2 3 3 3 3 3 4 5 5 5 6 6 6 5 5 5 6 6 8 11 14 16 17 18 19 19 19 20 20 21 21 22 22 22 22 22 23 23 23 23 24 23 23 23 23 23 23 23 23 23 23 23 22 22 21 21 21 20 21 21 22 22 21 20 20 19 20 19 19 19 18 19 19 20 20 20 20 21
1 2 2 1 1 1 2 2 2 2 2 3 3 4 4 5 5 5 5 5 5 5 5 5 5 6 6 8 11 14 16 17 17 18 18 19 19 20 21 21 22 22 22 23 23 23 23 23 23 23 23 23 22 22 23 23 23 23 22 21 21 21 21 20 20 20 20 21 22 22 22 21 20 20 20 20 19 19 19 19 20 20 21 21 21 21
2 2 2 1 1 1 2 2 2 2 2 3 4 4 4 5 5 5 5 5 5 5 5 5 5 5 5 7 9 13 14 15 16 17 18 18 19 20 21 21 21 22 22 22 22 22 22 22 22 22 22 22 22 23 23 23 23 23 22 21 21 20 20 20 20 20 20 21 21 22 22 21 21 20 20 20 19 19 19 19 20 21 21 22 22 22
2 2 2 1 1 1 2 2 2 2 3 3 4 4 4 4 4 4 5 5 5 5 5 5 5 4 4 5 7 10 13 14 16 17 18 19 19 20 20 20 21 21 21 21 21 21 21 22 22 22 22 22 23 23 23 23 23 23 23 22 21 21 20 20 19 19 19 20 20 21 21 21 21 21 20 20 19 19 19 19 20 21 22 22 23 23
1 1 2 1 1 2 2 2 2 3 3 3 4 4 3 3 4 4 4 4 5 5 5 4 4 3 3 3 5 8 12 15 16 17 18 18 19 19 19 19 20 20 20 20 21 21 21 21 21 22 22 22 22 22 23 23 23 23 22 22 21 21 21 20 20 20 19 20 20 20 20 21 21 20 20 20 19 19 19 19 20 21 22 22 22 22
2 1 1 1 2 2 2 2 2 3 3 3 3 3 3 3 3 3 4 4 4 4 4 3 3 2 2 3 5 8 12 14 16 17 17 17 17 18 18 18 19 19 20 20 20 20 21 21 21 21 21 22 22 22 22 22 21 21 21 21 21 22 22 22 22 22 21 21 21 21 20 20 20 20 19 19 19 19 19 20 21 21 21 22 22 22
2 1 1 2 2 2 2 2 3 3 2 3 3 3 3 3 3 3 3 3 3 3 3 2 2 2 2 3 5 8 10 12 13 14 15 15 16 16 17 18 18 19 20 20 20 21 21 21 21 21 22 22 22 21 21 21 21 21 21 21 21 22 23 23 23 23 22 22 21 21 20 20 19 19 19 19 19 19 20 20 21 21 21 21 21 21
2 2 2 2 2 2 2 3 3 3 3 3 3 3 4 3 3 3 3 2 2 1 2 2 2 3 3 3 5 6 7 7 8 9 10 11 12 13 15 17 18 20 20 21 21 21 21 21 21 21 22 22 22 21 21 21 21 21 21 22 22 22 23 23 23 23 22 22 21 20 20 19 19 19 19 20 20 20 20 20 20 20 20 20 21 21
3 3 2 2 2 2 3 3 3 3 3 3 3 3 4 3 3 3 2 2 2 1 1 2 3 3 3 3 4 5 6 5 5 5 6 6 8 10 13 16 18 19 20 21 21 20 20 20 21 21 21 21 21 21 21 22 22 22 22 22 22 23 23 23 23 22 22 21 20 20 19 19 19 19 20 20 20 20 20 20 20 20 20 21 21 22
2 3 3 2 2 2 3 4 4 3 2 2 2 3 3 3 3 3 3 2 2 2 1 2 2 3 3 3 3 3 5 5 6 7 8 9 10 12 14 15 16 17 19 20 20 19 19 20 20 21 21 21 21 21 21 21 22 22 22 22 23 23 23 23 23 22 22 21 20 20 20 20 20 20 20 20 20 20 20 20 20 20 21 21 22 23
2 2 2 3 3 2 3 3 3 2 1 1 1 1 1 2 2 3 4 3 3 2 1 1 2 3 3 3 3 3 3 3 4 6 8 10 12 14 15 15 15 16 17 17 18 18 18 19 20 20 20 21 21 21 21 21 21 22 22 22 22 23 23 22 22 22 21 21 21 21 20 20 20 20 20 20 20 20 20 20 20 21 21 22 22 23
2 2 2 2 3 3 2 3 2 2 2 2 2 2 2 1 1 2 4 4 4 3 2 2 2 2 3 3 3 3 2 2 3 4 5 7 8 9 10 11 11 12 13 13 14 15 16 18 18 19 19 20 20 21 21 21 21 22 22 22 22 22 22 22 21 21 21 21 21 21 21 20 20 20 20 20 21 21 21 21 21 22 22 22 23 23
2 2 2 2 2 2 2 2 2 2 2 2 2 3 3 2 2 2 3 4 4 3 3 3 3 2 3 2 2 2 3 3 4 4 5 5 5 5 6 6 6 6 7 7 7 9 12 15 16 17 18 19 19 20 21 21 22 22 22 22 22 22 21 21 21 21 21 21 21 21 21 21 21 21 21 21 21 21 22 22 22 22 22 23 23 23
3 2 2 2 2 2 2 2 3 3 2 2 3 3 3 3 3 3 3 3 3 3 3 3 3 3 3 1 1 2 4 4 5 5 5 5 5 5 5 5 5 4 4 4 4 6 9 11 11 12 15 17 18 19 20 21 21 22 22 22 21 21 21 21 20 20 20 20 21 21 21 21 21 21 21 22 22 22 22 22 22 22 22 22 22 22
3 3 2 2 2 2 3 3 3 4 3 3 3 3 4 3 3 3 3 4 4 3 3 4 4 4 3 1 2 3 5 5 5 5 6 5 5 4 4 4 4 4 3 4 5 6 9 8 8 8 10 13 15 17 19 19 21 21 21 21 21 21 20 20 20 20 20 21 21 21 21 21 21 21 21 21 21 21 22 22 22 22 22 22 22 22
3 2 3 3 3 3 3 4 4 4 4 4 3 4 4 4 4 3 3 4 4 4 4 5 5 5 3 2 3 4 6 5 5 5 6 5 5 4 4 4 4 4 4 5 5 6 7 6 6 7 9 13 17 20 21 20 21 21 21 21 21 20 20 20 21 21 21 21 21 21 21 21 21 21 21 21 21 21 21 21 21 21 21 21 21 22
3 3 3 4 4 4 3 3 3 3 3 3 3 3 3 4 4 4 4 4 4 4 4 4 5 5 4 3 3 4 5 5 4 4 5 5 4 4 3 4 5 5 5 5 5 6 6 6 6 7 9 14 18 21 21 21 21 21 21 20 20 20 20 21 21 21 21 21 21 21 21 21 21 21 21 21 21 21 21 21 21 21 21 21 21 21
3 3 3 3 3 3 3 3 3 3 3 3 3 3 3 3 3 3 3 3 4 4 4 4 4 5 5 5 4 4 4 4 4 4 5 5 5 4 3 3 4 5 5 6 5 5 5 5 6 8 11 17 20 21 21 21 20 20 20 20 20 20 21 21 21 21 21 21 21 21 21 21 21 21 21 21 21 21 21 21 21 21 21 21 21 22
3 3 3 3 3 3 3 3 3 3 3 3 3 4 4 4 3 3 3 3 4 4 5 5 4 4 4 5 5 4 4 3 3 4 5 5 5 4 3 3 4 5 5 6 5 5 5 5 8 12 16 19 21 21 21 20 20 20 20 20 20 20 21 20 20 21 20 20 20 20 20 20 20 20 21 21 21 21 21 21 21 21 21 21 22 22
3 3 3 3 3 3 3 3 3 4 4 4 4 4 4 4 4 3 3 4 4 4 4 4 4 4 3 4 4 5 4 3 3 3 5 5 5 4 3 4 4 5 5 5 5 4 5 5 7 11 16 18 19 20 20 20 20 20 20 20 20 20 20 20 20 20 20 20 20 20 20 20 20 20 21 21 21 21 21 21 21 21 21 22 22 22
3 3 3 3 3 3 3 3 4 4 5 4 4 3 3 3 3 3 3 4 4 4 3 3 3 3 3 4 4 5 4 3 3 4 4 4 4 4 3 4 4 5 6 5 5 4 5 5 5 7 11 16 18 19 20 20 20 20 20 20 20 20 20 20 20 20 20 20 20 20 20 20 20 20 21 21 21 21 21 21 21 21 21 21 22 22
3 3 4 3 3 3 3 3 4 5 5 4 3 3 3 3 3 3 3 3 3 4 4 3 3 3 3 3 4 4 3 2 2 3 4 5 5 5 4 4 4 5 5 5 5 5 5 5 5 7 11 15 18 19 20 20 20 20 20 20 20 20 20 20 20 20 20 20 20 20 20 20 20 20 20 20 21 21 21 21 21 21 21 21 21 21
3 3 4 4 3 3 4 3 3 3 4 3 3 3 2 2 3 3 3 3 3 3 3 3 3 3 3 3 4 4 3 2 2 2 4 5 6 6 5 4 5 5 5 5 5 5 5 5 5 6 9 14 17 18 19 20 20 20 20 20 20 20 20 20 20 20 20 20 20 20 20 20 20 20 20 20 20 20 20 20 21 21 21 21 21 21
3 3 3 3 3 3 3 3 2 1 2 2 2 2 2 3 3 2 2 2 2 2 3 3 3 3 3 3 3 3 3 2 2 2 4 5 6 6 5 4 5 6 7 6 6 6 6 5 5 5 6 11 14 17 18 19 20 20 20 20 20 20 20 20 20 20 20 20 20 20 20 20 20 20 20 20 20 20 20 20 20 21 21 21 20 20
3 3 3 4 5 6 6 6 5 4 2 2 2 3 3 3 3 3 2 2 2 2 3 3 3 3 3 4 3 3 3 2 2 3 4 5 6 6 5 4 5 7 7 6 6 6 5 5 5 4 4 7 11 15 17 18 19 20 20 20 20 20 20 20 20 20 20 21 21 21 21 21 21 21 21 21 21 21 21 21 21 21 21 20 20 19
7 7 7 9 11 12 13 13 12 12 10 6 4 4 4 3 3 3 3 3 3 4 4 4 4 4 4 4 4 3 4 3 2 3 4 4 6 6 5 4 5 7 8 7 6 6 6 6 5 4 3 5 8 12 16 18 19 19 20 20 20 20 21 21 21 21 21 21 21 21 21 21 21 21 21 21 21 21 21 21 21 21 21 19 18 17
13 13 14 14 15 15 16 16 16 16 16 14 11 8 5 3 3 4 4 4 4 5 5 5 5 5 5 5 4 4 4 3 3 3 3 4 5 6 5 5 6 7 8 7 7 7 8 6 5 4 4 4 5 9 14 16 18 19 19 20 20 21 21 21 21 21 21 21 21 21 21 21 21 21 21 21 21 21 21 22 21 21 19 17 15 13
15 15 15 15 15 16 16 16 16 16 16 15 15 12 7 4 4 4 5 5 4 4 4 5 5 5 5 5 4 4 3 3 3 3 3 4 5 5 5 5 5 6 7 7 7 7 7 6 4 4 4 4 5 7 11 14 16 17 18 19 20 21 21 21 21 21 21 21 21 21 21 21 21 22 22 22 22 22 22 22 21 19 16 13 9 8
13 14 14 15 15 15 15 14 14 15 16 16 15 13 8 4 3 4 4 4 4 4 4 5 5 4 4 4 4 4 3 3 3 4 4 5 5 5 5 5 5 6 7 7 6 6 4 3 3 3 3 5 6 6 8 10 12 13 14 17 18 19 20 21 21 21 21 21 21 21 21 21 22 22 22 22 22 22 22 22 20 17 12 9 7 7
9 10 10 12 12 12 11 9 10 12 14 15 14 12 7 3 2 2 3 3 3 4 4 5 5 5 5 4 4 4 3 3 4 4 5 5 5 5 6 6 6 6 6 6 6 5 4 3 3 3 4 6 7 6 5 6 7 7 8 12 14 16 18 20 21 21 21 21 21 21 21 21 21 22 22 22 22 22 22 22 19 14 8 7 6 6
6 6 6 7 7 7 7 6 7 8 10 11 11 9 6 4 2 2 2 3 3 3 4 4 4 5 5 4 4 4 3 3 4 5 5 5 5 5 6 6 6 6 6 5 5 6 6 5 5 4 5 6 6 6 6 6 5 6 6 7 9 11 16 18 19 19 19 20 20 20 21 21 21 21 22 22 22 22 22 22 19 13 8 7 6 7
5 5 5 5 5 5 5 5 5 5 6 7 6 6 5 5 4 3 3 2 2 3 3 4 4 4 4 4 4 4 3 3 5 7 6 5 4 5 6 6 6 6 5 4 4 5 5 6 6 6 6 6 6 6 6 6 6 5 6 7 7 9 14 15 16 16 16 17 18 19 20 20 20 21 21 21 22 22 22 22 19 15 9 7 7 7
5 5 4 5 5 5 5 5 5 5 5 4 4 4 4 5 5 4 3 2 2 2 3 3 4 4 4 4 4 3 3 3 5 7 8 5 4 4 5 6 6 6 6 5 4 4 4 5 6 6 7 6 5 5 5 6 6 6 6 7 7 8 11 12 12 12 12 14 14 15 17 18 19 19 20 21 21 22 22 23 21 17 12 8 7 7
5 5 5 5 5 5 5 5 5 5 5 4 4 4 4 4 4 4 4 3 3 2 2 3 3 4 5 4 4 4 3 3 5 7 8 5 4 4 5 5 6 6 6 5 5 5 4 5 6 6 6 6 5 5 5 5 6 6 6 6 6 7 9 9 9 9 10 10 10 10 12 13 15 16 17 19 20 21 22 22 22 20 17 12 9 7
5 5 5 5 5 5 6 5 5 5 5 4 4 5 5 4 4 4 4 4 3 3 2 2 2 3 4 4 4 4 4 4 5 7 7 5 4 4 5 5 5 5 6 6 5 5 5 6 7 7 7 7 6 5 4 4 5 6 6 6 6 6 7 7 8 8 9 9 9 8 8 9 10 12 13 16 18 20 22 22 21 21 20 17 14 10
5 5 5 5 5 6 6 6 6 6 5 5 5 4 4 4 4 4 4 4 4 4 4 3 3 2 2 3 4 4 4 4 5 6 6 4 3 3 4 4 5 5 5 6 6 5 5 6 7 8 8 7 6 5 5 5 5 6 7 7 7 7 7 7 7 7 8 8 8 8 8 8 9 10 11 16 18 20 21 21 21 20 20 19 17 15
5 5 5 5 5 5 6 6 6 6 6 5 5 5 5 5 4 4 4 4 4 4 4 5 4 4 4 3 3 3 4 4 5 5 5 4 3 2 3 3 4 5 5 5 6 6 6 7 7 7 7 6 6 6 6 7 7 7 7 7 7 7 7 7 7 7 7 8 9 9 9 9 9 10 11 15 17 18 18 19 19 19 19 19 18 17
6 6 5 5 5 5 5 5 6 6 6 6 6 6 5 5 5 4 4 4 4 4 4 4 4 5 7 6 5 4 4 5 5 5 5 3 2 2 3 3 4 4 4 4 5 6 6 6 7 7 6 5 6 7 8 8 8 8 8 8 7 6 6 7 7 7 7 8 9 10 10 10 9 9 10 11 11 11 12 12 14 15 17 16 17 17
5 5 5 5 5 5 5 5 5 5 5 5 6 5 5 5 5 4 4 4 4 4 4 4 4 5 6 7 7 7 6 5 5 5 4 3 2 2 3 3 4 4 4 4 4 5 5 5 6 6 6 6 6 7 6 6 7 8 9 8 7 6 6 7 7 7 7 8 9 10 10 9 9 9 9 9 9 9 9 10 11 12 13 11 12 14
5 5 5 6 6 5 5 5 5 5 5 5 5 5 4 4 4 4 4 4 4 3 3 3 3 4 4 5 6 6 6 4 4 4 3 3 2 2 2 3 3 4 4 4 4 4 5 5 5 6 6 6 6 7 6 6 7 8 10 8 7 6 8 8 7 7 7 7 8 9 9 9 9 9 9 9 9 9 9 8 9 10 10 9 8 9
6 5 5 5 5 5 5 5 5 5 5 4 4 4 4 4 4 4 4 4 4 3 3 4 3 3 3 3 4 4 4 5 4 4 3 4 3 3 3 3 3 4 4 4 4 4 4 5 5 5 5 5 6 7 7 7 8 10 11 9 8 8 9 8 8 7 7 8 8 8 9 10 10 10 10 10 9 8 8 8 8 9 9 7 7 7
6 6 6 5 5 5 5 5 5 5 5 4 3 4 4 4 4 4 4 5 5 5 4 5 5 5 4 4 4 4 4 4 4 4 4 5 5 4 4 4 3 3 4 4 4 4 4 4 4 4 4 4 4 5 5 6 7 8 9 8 9 9 8 7 7 7 8 8 8 8 10 9 9 9 10 10 9 8 8 8 9 10 9 7 6 6
6 5 5 5 5 5 5 5 5 5 4 4 3 4 4 4 4 4 4 5 5 5 6 5 5 5 5 5 4 4 4 3 3 3 4 5 5 5 5 5 4 4 3 4 4 5 4 4 4 4 4 3 3 4 5 6 7 7 7 8 9 8 6 6 6 7 7 8 8 8 8 8 8 8 9 9 8 8 8 9 10 10 10 8 7 6
5 4 5 5 5 5 5 5 5 5 4 4 4 4 5 5 5 5 5 4 5 5 5 5 4 4 4 5 5 5 4 3 3 3 3 6 7 7 6 6 6 5 3 3 4 4 4 4 4 4 3 3 3 4 5 6 6 6 6 7 8 7 6 7 8 9 8 8 7 7 8 8 8 8 7 7 7 7 7 7 7 7 8 7 7 6
4 4 5 5 5 5 5 5 5 5 5 4 4 5 5 5 5 5 5 5 5 5 5 5 5 5 5 6 6 6 6 5 4 3 3 6 8 9 8 7 6 6 5 4 4 4 4 4 4 4 3 3 3 4 4 5 6 6 7 8 8 7 7 7 8 9 9 8 8 8 9 9 9 8 7 7 7 7 7 7 7 7 7 7 6 7
4 5 5 5 5 6 6 6 6 5 5 5 5 5 5 5 5 5 5 5 5 5 5 4 4 4 5 6 6 7 7 7 7 6 5 5 5 6 6 6 6 6 6 5 5 4 4 4 4 4 4 3 3 3 4 5 5 6 7 7 7 7 7 7 7 8 8 9 9 9 10 10 9 8 7 7 7 7 7 7 7 7 7 7 7 7
5 6 5 5 5 6 6 6 6 5 5 5 5 5 5 5 5 5 5 5 5 5 5 4 4 4 4 5 6 7 8 8 8 8 7 7 6 6 6 6 7 7 6 6 5 5 5 5 4 4 3 2 2 3 3 4 5 6 7 7 7 7 6 6 7 7 8 8 9 10 11 10 9 8 8 7 7 7 6 6 6 6 6 6 7 7
6 6 6 6 6 6 6 6 6 5 5 5 5 5 4 5 6 6 5 5 5 5 5 5 5 5 5 5 5 6 7 8 8 8 8 8 8 7 7 6 6 6 6 6 6 6 5 5 5 4 3 2 2 2 3 4 5 5 6 6 6 7 7 7 7 7 7 8 9 10 10 9 8 8 8 8 7 7 6 7 6 6 5 6 6 6
5 6 6 6 6 6 6 6 6 6 5 5 5 5 4 5 6 7 5 5 5 5 5 5 5 5 5 5 6 6 7 7 7 7 8 8 8 8 8 7 7 6 5 5 5 4 4 4 4 4 4 4 2 2 4 4 5 5 5 5 6 6 6 7 7 7 7 8 9 9 8 7 7 7 8 8 8 8 8 7 6 5 5 5 6 6
5 5 6 6 6 6 6 6 6 6 6 5 5 5 4 4 5 5 4 4 4 4 4 4 5 5 5 6 6 7 7 7 7 7 7 7 8 8 8 8 8 8 7 6 5 5 4 4 3 2 4 2 1 3 4 5 5 5 5 5 5 6 6 7 7 8 8 8 8 8 8 7 6 6 6 7 8 9 8 8 7 6 6 6 6 7
6 5 6 6 6 6 6 6 6 6 6 5 5 5 4 4 5 5 5 5 5 5 4 4 4 4 5 6 7 7 7 7 7 8 8 8 8 8 8 8 9 9 8 7 7 6 6 5 4 3 3 4 7 7 5 5 6 6 6 6 6 6 6 7 7 8 8 8 7 7 7 7 7 6 6 7 8 8 8 8 8 8 7 7 7 7
Wind_Direction
274 282 287 302 309 305 295 298 299 300 297 300 303 307 309 308 303 297 294 296 296 295 294 293 293 294 296 297 298 300 302 304 306 308 310 311 312 313 314 314 314 314 315 315 316 316 317 318 318 317 317 316 315 314 313 312 311 312 313 315 317 319 319 317 315 314 312 310 308 307 306 303 301 299 299 299 300 301 302 301 301 302 304 306 306 306
296 299 302 323 325 306 292 297 293 287 289 297 304 309 311 308 305 303 303 301 297 293 290 290 290 290 289 292 297 301 304 307 311 314 316 318 319 319 319 319 319 319 319 320 320 321 321 321 320 319 318 317 316 315 314 314 314 315 316 318 320 320 319 317 316 314 312 310 308 307 306 304 301 300 300 301 303 305 306 307 307 307 307 306 305 303
310 310 309 325 332 313 292 298 298 294 296 303 309 311 313 310 307 305 303 301 297 294 289 287 289 290 289 290 298 304 309 314 318 322 324 325 325 325 324 323 323 323 323 323 323 324 324 323 322 320 319 318 317 316 315 315 315 316 318 319 320 319 318 315 313 312 311 309 308 307 306 304 303 302 305 307 308 309 311 311 309 307 306 304 303 302
308 308 302 313 310 293 275 286 299 309 314 312 310 310 310 305 301 297 294 293 294 294 292 288 288 290 291 291 300 309 317 323 327 329 329 329 329 328 327 326 326 326 326 326 325 325 324 323 321 320 319 318 317 316 315 315 316 317 319 321 321 320 317 314 312 310 308 308 306 306 305 305 306 307 309 310 311 311 311 310 308 305 304 303 303 304
301 296 293 305 305 295 282 290 304 316 319 314 309 305 301 293 289 288 288 288 289 290 290 289 286 284 286 291 306 318 326 331 332 332 332 331 331 331 330 330 329 329 328 327 326 324 322 321 319 318 317 317 316 316 316 316 317 319 321 323 323 322 319 317 314 312 309 308 307 306 307 308 309 310 310 310 310 310 310 308 305 304 304 305 306 307
289 283 293 303 304 302 301 307 316 319 319 312 306 300 293 283 279 280 282 283 285 286 289 292 291 288 287 296 318 327 332 333 333 332 332 333 334 334 334 333 332 330 329 327 325 322 321 319 319 318 318 318 317 317 317 317 318 320 322 324 325 324 322 320 318 316 314 313 312 311 311 310 311 310 310 309 309 309 308 306 304 304 306 308 308 307
293 296 313 310 306 304 307 309 310 311 307 304 303 299 293 284 277 273 272 275 280 289 296 304 311 314 309 312 324 331 333 332 331 331 332 335 337 337 336 333 331 329 327 325 323 322 321 321 321 321 321 321 320 320 320 320 322 323 324 325 325 324 322 320 319 317 316 316 315 314 314 313 312 312 311 310 310 309 308 307 307 308 311 311 309 307
306 310 321 316 313 310 306 299 297 293 287 290 294 297 295 289 283 278 279 287 298 311 320 329 331 330 325 321 326 328 328 327 327 328 333 338 339 338 335 332 330 327 325 323 322 322 322 323 324 324 324 324 324 324 325 325 326 326 326 325 324 322 320 319 317 317 317 317 317 316 316 316 315 314 313 312 311 311 310 311 311 312 313 311 308 306
302 306 309 304 304 306 303 295 286 279 275 277 281 288 295 295 295 296 308 321 331 346 -0 353 342 331 319 316 318 319 316 321 326 333 339 343 341 337 333 330 328 325 323 322 322 322 323 325 325 326 326 327 328 329 329 329 328 327 325 324 322 320 318 317 317 317 317 318 318 318 318 318 317 316 316 315 315 315 315 316 315 315 313 311 308 306
293 292 292 285 278 278 288 291 287 281 278 273 270 273 284 297 307 316 327 327 333 341 -0 352 336 321 312 307 305 306 311 325 337 345 346 341 336 332 329 327 325 322 320 320 321 322 323 324 325 326 327 329 330 331 332 330 328 326 323 321 320 318 318 318 318 319 320 320 320 320 321 320 320 319 318 318 318 319 319 319 318 316 314 312 311 310
286 279 276 278 271 263 258 272 281 294 330 326 308 296 289 303 319 327 329 326 326 329 331 327 318 314 312 309 307 308 318 335 343 346 344 337 333 330 327 324 321 319 318 318 320 321 322 323 325 327 329 331 332 332 331 328 326 324 322 320 319 319 318 319 320 321 322 323 323 323 323 323 322 322 321 321 321 321 321 320 319 317 315 314 312 310
276 275 270 272 275 275 269 273 287 313 351 355 349 340 336 336 338 333 326 324 325 327 322 314 306 302 300 301 310 324 346 349 347 342 338 333 330 327 323 321 318 317 317 318 319 320 321 323 326 329 331 332 332 330 329 326 325 323 322 321 320 320 320 321 322 323 324 325 325 325 325 324 323 323 323 322 322 321 321 320 318 317 315 313 311 309
272 271 270 275 282 290 297 307 318 329 344 354 351 346 341 342 338 329 319 318 321 324 322 317 311 299 284 286 312 344 357 353 347 341 336 329 324 320 316 314 313 313 315 317 318 320 322 326 329 331 333 331 330 328 326 325 324 323 322 322 321 321 322 323 324 325 326 326 326 326 325 324 324 324 323 322 321 320 319 317 316 314 312 311 309 307
285 282 281 288 299 311 326 332 334 336 345 357 357 349 339 334 332 328 320 316 317 319 317 314 312 307 296 301 -0 18 6 357 348 340 334 325 318 312 309 308 309 310 313 318 320 325 330 334 334 332 331 329 327 325 324 323 323 323 323 323 323 323 324 325 326 327 327 327 327 326 325 325 324 323 322 321 320 318 317 316 314 312 311 309 308 306
294 298 305 316 331 345 355 354 352 351 354 355 348 337 328 326 328 327 322 319 319 321 319 313 312 311 306 322 27 31 12 1 348 336 328 320 311 304 303 307 310 314 323 331 331 332 335 336 333 328 326 324 323 322 323 323 324 324 324 324 325 325 326 327 328 328 328 328 327 325 324 323 322 322 321 319 318 317 316 314 313 312 310 309 308 307
313 328 339 348 356 3 5 359 353 348 345 340 334 329 326 326 328 330 326 323 324 327 327 326 324 321 315 338 23 27 12 358 343 329 321 314 307 303 306 318 326 332 339 338 335 332 332 331 327 324 321 321 321 322 324 324 325 325 326 327 327 328 329 329 329 329 328 327 326 324 323 322 321 320 319 318 317 316 315 314 313 312 311 310 310 309
350 1 3 -0 358 356 353 347 341 336 329 325 324 324 327 329 332 335 334 332 332 333 335 335 331 327 322 336 7 20 11 351 335 321 313 309 307 309 321 335 339 339 339 335 330 327 326 325 324 322 320 321 323 324 325 326 327 328 329 329 330 331 331 331 330 329 328 326 325 323 322 321 320 319 318 318 317 316 315 314 313 313 312 312 311 310
12 11 5 357 349 342 335 331 329 326 323 322 323 326 334 341 342 341 340 340 339 339 338 337 332 327 324 327 340 355 359 343 328 317 312 313 315 319 334 346 345 338 332 327 323 321 321 322 323 322 320 323 324 325 327 328 329 331 331 332 332 333 332 331 330 329 328 326 324 323 322 321 320 319 319 318 317 316 315 315 314 313 313 312 311 310
12 9 1 349 337 329 326 326 327 328 330 334 339 345 353 356 354 349 346 349 349 346 342 338 333 328 324 320 322 327 336 335 325 315 315 319 320 323 337 350 344 334 326 320 317 315 317 317 319 320 321 323 324 326 329 331 332 333 334 334 334 334 333 332 330 329 327 326 324 323 322 321 320 320 319 318 317 316 316 315 315 314 313 311 310 309
7 4 353 339 331 327 325 323 327 334 343 352 358 4 6 359 353 352 357 358 356 352 345 335 330 325 321 314 312 315 326 338 333 321 319 319 317 319 337 349 342 329 320 314 311 311 315 315 316 318 320 322 325 328 331 333 335 335 335 335 335 334 333 332 331 329 328 326 325 324 323 322 321 320 319 319 318 318 317 316 315 314 313 311 310 308
2 353 340 332 330 330 327 328 340 355 10 16 21 22 16 359 351 353 3 -0 355 349 344 335 324 317 311 308 307 309 321 342 340 329 322 320 317 321 338 344 336 323 314 311 311 313 315 315 314 314 316 321 325 329 332 335 336 336 336 336 336 335 334 333 332 330 329 328 326 325 324 323 322 321 321 320 320 319 318 317 316 314 313 311 310 309
-0 346 332 331 332 332 328 328 351 15 37 42 39 29 15 359 354 357 3 -0 352 344 337 324 308 295 288 289 292 296 307 326 329 323 322 320 321 325 336 337 327 317 310 311 313 315 314 312 309 309 312 320 325 330 333 335 336 336 337 337 336 336 335 334 333 332 330 329 328 327 326 325 324 323 322 322 321 320 319 318 316 315 313 312 310 310
-0 346 336 338 339 338 332 330 351 30 58 65 58 41 15 2 356 355 357 356 347 333 316 298 288 281 276 276 283 290 298 288 295 313 323 322 324 327 332 330 322 315 311 314 316 316 313 310 306 307 310 320 325 329 333 334 335 336 337 337 337 336 336 335 334 332 331 330 329 328 327 326 325 325 324 323 322 321 320 318 317 315 314 313 313 313
2 354 346 347 352 353 345 341 350 40 102 94 77 54 21 7 357 349 346 348 336 318 303 296 300 305 300 301 304 306 306 292 302 327 334 326 324 324 326 324 319 316 315 316 315 314 311 308 305 304 306 319 325 329 331 333 334 335 336 336 336 336 335 335 334 333 331 331 330 329 328 327 327 326 326 325 324 323 321 320 318 317 316 317 317 318
11 9 5 8 12 13 8 2 3 11 35 81 77 54 27 9 359 352 349 354 344 331 323 330 337 338 329 332 333 328 317 302 325 350 347 329 322 320 320 320 319 317 317 317 316 314 310 308 306 306 306 316 323 327 330 332 333 334 335 335 335 335 335 334 333 332 332 331 330 330 329 329 328 328 327 327 326 325 324 322 321 321 321 322 323 324
21 20 19 21 20 19 15 11 9 7 7 14 32 44 32 11 1 -0 3 2 355 347 345 350 352 350 344 345 343 336 324 318 340 1 353 329 319 316 317 321 321 319 316 317 318 318 314 311 311 312 313 312 320 325 328 330 332 333 334 334 334 334 334 334 333 332 332 332 331 331 331 330 330 329 329 328 328 327 326 325 325 325 326 327 328 327
21 21 21 22 22 21 18 15 12 9 8 10 17 26 32 18 8 8 10 6 358 351 351 354 353 349 346 346 342 334 325 328 345 359 351 325 316 314 319 324 324 321 317 318 320 320 317 314 313 312 311 305 311 319 327 329 331 332 333 333 334 333 333 333 333 332 332 332 332 332 332 331 331 330 330 330 329 329 328 328 328 329 330 331 330 327
17 18 18 20 20 19 18 15 13 11 10 10 14 19 28 26 17 10 8 1 355 351 353 353 350 346 343 339 334 327 320 327 339 345 338 323 316 315 322 325 325 322 320 319 318 318 315 311 306 303 304 308 313 320 325 328 330 331 331 332 332 333 332 332 332 333 333 333 333 332 332 332 331 331 331 331 331 330 330 330 331 331 333 333 330 324
11 12 12 14 14 14 12 10 8 7 8 8 10 13 21 26 19 7 358 351 349 350 350 349 346 342 335 328 323 320 317 322 331 335 333 322 318 318 324 327 328 328 326 323 320 317 313 303 296 297 306 318 322 324 324 327 328 328 329 330 331 331 331 331 332 332 333 333 333 332 332 332 332 332 332 332 332 332 332 333 333 333 334 332 326 320
4 5 5 6 6 6 4 1 359 -0 2 4 5 6 10 12 8 354 344 345 347 348 345 343 341 337 333 328 325 323 324 325 331 335 334 326 323 324 329 330 332 335 336 330 326 322 318 312 309 313 320 325 326 325 322 325 325 326 326 328 329 329 330 331 332 332 332 332 332 332 332 332 332 333 333 333 333 334 334 335 336 336 334 328 323 319
357 358 357 356 355 354 353 352 351 353 355 358 359 359 359 357 352 344 342 345 344 341 335 335 335 335 335 331 329 328 325 329 337 341 338 330 325 326 332 330 332 336 342 338 332 326 321 319 322 327 331 328 325 323 323 324 325 325 325 326 326 326 328 330 331 331 332 332 332 332 332 333 333 334 334 334 334 335 335 336 338 338 333 327 322 319
355 355 352 349 348 347 348 348 348 349 350 352 351 350 350 351 351 349 346 343 338 333 329 330 332 332 333 329 324 320 319 322 336 341 341 332 326 326 331 330 330 333 339 339 332 323 316 317 320 324 329 326 324 323 323 326 327 327 327 326 324 323 326 328 330 330 330 330 331 331 332 332 333 334 335 335 335 335 335 337 338 338 335 328 322 320
352 350 348 348 347 347 347 346 346 346 348 346 344 343 346 349 348 347 343 339 335 332 329 330 331 329 326 322 317 311 310 312 329 338 342 336 328 326 330 329 329 329 332 332 327 317 307 309 313 317 320 321 321 322 322 326 327 329 328 326 323 322 324 327 328 328 328 329 329 329 331 332 333 334 334 334 335 335 335 337 337 338 337 330 324 321
350 348 348 349 350 350 349 348 346 346 347 345 344 345 347 345 344 342 340 336 332 326 319 325 326 326 324 320 316 313 309 304 320 331 341 338 330 325 327 328 328 329 329 328 326 320 309 309 311 313 313 316 317 319 321 324 327 328 326 324 321 320 322 324 326 326 326 327 327 327 330 331 332 334 334 334 334 335 335 336 337 337 337 334 330 326
351 351 353 354 355 355 354 351 349 349 348 346 345 346 345 341 339 337 337 335 331 324 311 308 311 313 317 317 317 316 312 303 316 327 336 336 331 324 325 327 329 329 328 326 326 324 316 314 314 314 313 315 315 316 319 322 325 325 323 321 320 319 319 321 322 323 324 325 326 327 329 330 332 333 333 333 333 334 334 335 335 335 336 336 334 331
356 356 357 358 359 358 356 353 352 351 350 346 345 344 342 338 336 333 332 329 327 326 325 319 312 304 297 297 300 303 301 300 311 321 328 328 327 322 320 322 326 327 326 325 325 323 318 315 314 315 316 315 315 315 319 323 325 325 324 323 322 321 319 320 321 322 323 326 327 329 330 331 332 331 330 331 332 332 333 333 333 333 334 334 334 333
2 1 359 358 358 357 355 352 352 352 350 346 344 342 340 335 332 328 324 321 321 323 327 327 323 317 310 286 270 271 279 289 301 310 316 318 319 317 311 312 320 324 324 323 322 321 318 315 315 316 316 315 315 316 320 325 328 328 327 326 325 323 321 321 322 324 325 327 329 330 331 332 331 330 328 330 331 331 331 332 331 332 332 332 332 332
7 3 359 358 356 355 353 351 350 349 347 342 340 338 335 329 325 321 319 316 314 314 316 320 319 316 316 308 295 279 274 281 289 297 306 310 313 315 312 308 311 315 315 315 316 317 317 316 316 317 316 313 312 314 317 322 325 326 325 323 322 320 320 322 325 327 329 330 330 330 331 331 331 330 328 330 331 331 330 330 330 330 331 330 330 330
5 1 357 356 355 352 349 347 345 343 338 334 332 331 329 325 322 320 316 313 308 305 301 302 303 304 307 308 306 303 298 294 293 297 303 305 307 309 313 310 307 306 306 309 311 312 312 310 311 312 312 312 313 315 317 320 321 322 321 321 322 323 325 326 328 330 332 332 331 331 331 330 330 330 329 330 330 330 329 327 327 328 329 328 328 329
2 358 353 353 350 345 342 341 337 332 328 326 325 326 330 334 334 331 325 319 313 307 299 297 294 293 294 298 302 305 306 303 303 304 305 305 304 305 311 306 303 303 308 310 312 310 309 305 303 302 304 306 310 313 315 318 319 321 323 325 327 328 329 329 330 333 334 333 332 331 329 330 330 330 330 329 328 327 325 323 322 323 323 324 324 326
358 354 349 345 340 336 334 331 328 325 323 324 327 333 341 346 344 339 335 334 331 328 327 328 325 318 310 303 297 294 296 296 300 304 305 305 304 302 303 297 298 304 312 312 309 305 302 300 298 298 299 301 303 305 306 309 314 318 322 323 321 319 321 325 329 333 334 332 331 330 329 329 329 329 328 326 323 320 317 316 315 315 317 319 320 322
356 351 344 339 335 333 330 327 327 329 330 330 335 342 350 352 347 341 339 341 341 343 345 346 344 339 332 322 310 300 295 295 298 304 305 306 306 306 305 300 299 304 311 311 307 299 292 291 290 290 290 293 298 301 303 304 309 314 319 317 316 316 316 324 330 333 333 330 329 328 329 328 327 326 323 321 318 315 314 312 313 314 316 317 318 317
352 346 339 334 332 329 327 331 335 340 340 338 347 355 359 355 350 345 344 343 342 342 344 345 342 337 332 329 325 320 311 300 299 304 312 315 316 315 315 309 304 301 307 310 307 302 294 291 285 278 275 277 283 291 296 302 307 311 314 318 323 326 327 329 331 331 329 327 326 325 326 325 322 319 316 313 311 310 311 311 312 313 314 313 312 311
346 341 336 334 332 332 336 343 348 349 345 345 355 4 4 356 353 352 350 345 340 339 342 340 336 334 337 336 334 332 328 321 316 317 323 335 337 335 327 319 310 303 299 300 301 303 304 302 293 280 271 271 277 286 292 299 305 310 315 323 327 328 324 321 323 325 326 324 323 323 323 321 318 314 310 309 309 310 311 312 311 310 310 308 308 307
344 342 340 339 340 344 349 352 351 349 346 348 359 7 4 356 355 357 356 348 342 339 339 339 341 343 346 342 338 336 336 337 340 343 338 341 340 338 331 323 316 310 303 292 284 284 293 297 295 291 286 280 278 281 287 295 303 311 318 324 324 321 313 314 317 322 323 323 322 321 322 321 318 315 311 311 312 312 311 311 310 310 309 309 309 308
350 348 345 344 347 350 352 351 349 347 346 351 1 7 3 356 354 354 356 351 344 337 333 340 348 351 346 340 339 339 340 340 342 343 343 341 338 334 330 324 319 314 308 297 284 272 263 266 273 280 292 294 287 279 276 290 303 312 318 322 322 319 314 316 319 321 321 320 320 319 320 320 318 315 313 313 312 311 309 307 306 307 308 309 309 309
353 352 349 349 349 350 350 348 346 346 346 352 -0 6 3 356 354 355 356 352 346 338 334 341 349 349 340 337 339 342 342 340 339 339 339 340 339 337 333 327 321 315 307 302 293 281 266 255 249 249 259 278 284 283 279 294 308 317 319 319 320 320 319 319 319 319 318 317 317 317 319 320 319 316 313 311 309 308 306 306 304 304 304 307 308 310
355 352 350 349 348 348 347 346 346 345 345 350 357 3 3 359 360 359 352 348 344 342 342 346 346 343 337 337 341 343 343 339 337 336 335 337 338 338 337 333 327 320 313 307 300 291 278 262 246 228 206 207 240 277 296 310 318 320 318 318 319 319 319 317 316 316 315 314 313 314 317 318 317 315 312 311 310 310 310 310 309 307 305 306 308 311
354 351 350 348 348 347 346 346 345 344 344 348 353 357 356 357 -0 360 349 343 342 343 346 345 341 338 336 338 340 343 344 340 337 335 335 337 337 337 337 336 335 332 327 321 315 306 294 279 254 224 190 184 204 271 305 317 321 320 317 318 319 319 318 316 314 314 314 312 311 311 312 311 309 307 307 309 310 310 311 312 311 311 311 310 311 312
352 350 350 349 349 349 347 344 343 343 342 345 350 352 349 351 354 353 347 343 343 342 342 338 335 334 336 338 341 343 344 341 339 338 338 339 339 339 338 338 339 340 339 338 338 336 331 323 303 252 202 200 296 336 328 326 323 322 322 323 322 321 318 315 314 314 314 312 310 309 309 306 305 304 305 308 310 310 312 314 316 318 318 317 316 315
351 349 350 350 350 349 346 343 342 343 343 343 344 345 347 349 350 349 347 347 346 343 338 333 331 332 337 339 341 342 344 341 340 339 340 340 340 339 339 340 342 344 345 346 348 349 350 348 343 333 318 347 1 3 348 335 329 327 328 328 327 324 319 314 312 311 311 310 308 307 307 308 308 310 312 312 312 314 316 318 319 321 321 321 319 316